Satellite: RESURS
Catalog number: 25394
Epoch time: 09274.52722595
Element set: 322
Inclination: 098.3332 deg
RA of node: 301.4257 deg
Eccentricity: 0.0000584
Arg of perigee: 283.6753 deg
Mean anomaly: 076.4367 deg
Mean motion: 14.24188335 rev/day
Decay rate: -4.4e-07 rev/day^2
Epoch rev: 58353
Checksum: 305
Satellite: FENGYUN1
Catalog number: 25730
Epoch time: 09274.87977484
Element set: 864
Inclination: 098.7622 deg
RA of node: 241.8803 deg
Eccentricity: 0.0021289
Arg of perigee: 276.4904 deg
Mean anomaly: 083.3841 deg
Mean motion: 14.07997828 rev/day
Decay rate: 6.65e-06 rev/day^2
Epoch rev: 53533
Checksum: 353
Satellite: OKEAN-0
Catalog number: 25860
Epoch time: 09273.82863152
Element set: 797
Inclination: 097.7992 deg
RA of node: 250.8805 deg
Eccentricity: 0.0000965
Arg of perigee: 104.0659 deg
Mean anomaly: 256.0654 deg
Mean motion: 14.73589467 rev/day
Decay rate: 3.8e-07 rev/day^2
Epoch rev: 54870
Checksum: 344
Satellite: NOAA-16
Catalog number: 26536
Epoch time: 09273.90603039
Element set: 0581
Inclination: 099.1819 deg
RA of node: 280.1507 deg
Eccentricity: 0.0010426
Arg of perigee: 349.7532 deg
Mean anomaly: 010.3409 deg
Mean motion: 14.12533489 rev/day
Decay rate: -7.6e-07 rev/day^2
Epoch rev: 46522
Checksum: 301
Satellite: NOAA-17
Catalog number: 27453
Epoch time: 09273.81311304
Element set: 0576
Inclination: 098.4725 deg
RA of node: 329.1823 deg
Eccentricity: 0.0011872
Arg of perigee: 170.6142 deg
Mean anomaly: 189.5239 deg
Mean motion: 14.24094935 rev/day
Decay rate: 1.38e-06 rev/day^2
Epoch rev: 37778
Checksum: 324
Satellite: NOAA-18
Catalog number: 28654
Epoch time: 09273.89668546
Element set: 0064
Inclination: 098.9154 deg
RA of node: 216.3545 deg
Eccentricity: 0.0015256
Arg of perigee: 065.9548 deg
Mean anomaly: 294.3236 deg
Mean motion: 14.11291037 rev/day
Decay rate: 4.07e-06 rev/day^2
Epoch rev: 22486
Checksum: 336
Satellite: NOAA-19
Catalog number: 33591
Epoch time: 09273.89937101
Element set: 0269
Inclination: 098.7550 deg
RA of node: 216.9505 deg
Eccentricity: 0.0013517
Arg of perigee: 307.0748 deg
Mean anomaly: 052.9198 deg
Mean motion: 14.10990770 rev/day
Decay rate: 3.93e-06 rev/day^2
Epoch rev: 03334
Checksum: 325
/EX
SB KEPS @ AMSAT $ORB09274.M
Orbital Elements 09274.MISC
HR AMSAT ORBITAL ELEMENTS FOR MANNED AND MISCELLANEOUS SATELLITES
FROM WA5QGD FORT WORTH,TX October 1, 2009
Send Subscribe/unsubscribe to KEPS at
http://www.amsat.org/mailman/listinfo/keps
BID: ORB09274.M
TO ALL RADIO AMATEURS BT
Satellite: HUBBLE
Catalog number: 20580
Epoch time: 09272.11815026
Element set: 0454
Inclination: 028.4692 deg
RA of node: 143.9754 deg
Eccentricity: 0.0003175
Arg of perigee: 304.5197 deg
Mean anomaly: 055.5135 deg
Mean motion: 15.00834089 rev/day
Decay rate: 3.43e-06 rev/day^2
Epoch rev: 86548
Checksum: 293
Satellite: ISS
Catalog number: 25544
Epoch time: 09274.76960447
Element set: 706
Inclination: 051.6375 deg
RA of node: 119.6248 deg
Eccentricity: 0.0008616
Arg of perigee: 151.6185 deg
Mean anomaly: 208.5817 deg
Mean motion: 15.74522651 rev/day
Decay rate: 1.3069e-04 rev/day^2
Epoch rev: 62274
Checksum: 320
Satellite: CO-58
Catalog number: 28895
Epoch time: 09274.17005537
Element set: 408
Inclination: 098.0427 deg
RA of node: 161.7287 deg
Eccentricity: 0.0018343
Arg of perigee: 019.7635 deg
Mean anomaly: 340.4255 deg
Mean motion: 14.59798613 rev/day
Decay rate: 4.5e-07 rev/day^2
Epoch rev: 20919
Checksum: 336
Satellite: FALCON
Catalog number: 30776
Epoch time: 09273.96464815
Element set: 0674
Inclination: 035.4331 deg
RA of node: 177.6093 deg
Eccentricity: 0.0000339
Arg of perigee: 071.5624 deg
Mean anomaly: 288.5129 deg
Mean motion: 15.03315252 rev/day
Decay rate: 4.74e-06 rev/day^2
Epoch rev: 14102
Checksum: 290
Satellite: MAST
Catalog number: 31126
Epoch time: 09274.73612497
Element set: 698
Inclination: 097.9767 deg
RA of node: 324.5963 deg
Eccentricity: 0.0093988
Arg of perigee: 309.6694 deg
Mean anomaly: 049.6232 deg
Mean motion: 14.53518962 rev/day
Decay rate: 4.4e-07 rev/day^2
Epoch rev: 13051
Checksum: 346
Satellite: CAPE1
Catalog number: 31130
Epoch time: 09273.77749049
Element set: 707
Inclination: 097.9787 deg
RA of node: 321.6332 deg
Eccentricity: 0.0102220
Arg of perigee: 318.8764 deg
Mean anomaly: 040.4731 deg
Mean motion: 14.52089892 rev/day
Decay rate: 1.25e-06 rev/day^2
Epoch rev: 13001
Checksum: 291
Satellite: COMPASS
Catalog number: 32787
Epoch time: 09273.79266734
Element set: 0481
Inclination: 097.9318 deg
RA of node: 336.6641 deg
Eccentricity: 0.0016680
Arg of perigee: 052.1208 deg
Mean anomaly: 308.1513 deg
Mean motion: 14.81661087 rev/day
Decay rate: 6.8e-07 rev/day^2
Epoch rev: 07708
Checksum: 319
Satellite: AAUSAT2
Catalog number: 32788
Epoch time: 09274.83213886
Element set: 473
Inclination: 097.9325 deg
RA of node: 337.7714 deg
Eccentricity: 0.0016553
Arg of perigee: 050.2016 deg
Mean anomaly: 310.0618 deg
Mean motion: 14.81788728 rev/day
Decay rate: 3.23e-06 rev/day^2
Epoch rev: 7724
Checksum: 316
Satellite: DO-64
Catalog number: 32789
Epoch time: 09274.71870176
Element set: 488
Inclination: 097.9365 deg
RA of node: 337.8921 deg
Eccentricity: 0.0016518
Arg of perigee: 048.0874 deg
Mean anomaly: 312.1731 deg
Mean motion: 14.81802706 rev/day
Decay rate: 2.95e-06 rev/day^2
Epoch rev: 7722
Checksum: 341
Satellite: CO-66
Catalog number: 32791
Epoch time: 09274.72595817
Element set: 470
Inclination: 097.9336 deg
RA of node: 337.6215 deg
Eccentricity: 0.0017088
Arg of perigee: 046.6416 deg
Mean anomaly: 313.6214 deg
Mean motion: 14.81482957 rev/day
Decay rate: 1.8e-07 rev/day^2
Epoch rev: 7718
Checksum: 338
Satellite: RS-30
Catalog number: 32953
Epoch time: 09274.75794789
Element set: 418
Inclination: 082.5046 deg
RA of node: 190.3496 deg
Eccentricity: 0.0018632
Arg of perigee: 310.5441 deg
Mean anomaly: 049.4015 deg
Mean motion: 12.43003183 rev/day
Decay rate: 1.0e-07 rev/day^2
Epoch rev: 6163
Checksum: 287
Satellite: TACSAT-3
Catalog number: 35001
Epoch time: 09273.59158009
Element set: 109
Inclination: 040.4573 deg
RA of node: 330.1657 deg
Eccentricity: 0.0024041
Arg of perigee: 229.0687 deg
Mean anomaly: 130.8045 deg
Mean motion: 15.39233803 rev/day
Decay rate: 2.944e-05 rev/day^2
Epoch rev: 2059
Checksum: 275
Satellite: PHARMSAT
Catalog number: 35002
Epoch time: 09274.56281472
Element set: 106
Inclination: 040.4709 deg
RA of node: 323.5713 deg
Eccentricity: 0.0027702
Arg of perigee: 239.4337 deg
Mean anomaly: 120.3743 deg
Mean motion: 15.39990023 rev/day
Decay rate: 2.793e-05 rev/day^2
Epoch rev: 2074
Checksum: 274
Satellite: HAWKSAT1
Catalog number: 35003
Epoch time: 09273.54178853
Element set: 110
Inclination: 040.4629 deg
RA of node: 328.9203 deg
Eccentricity: 0.0027242
Arg of perigee: 236.7079 deg
Mean anomaly: 123.1126 deg
Mean motion: 15.40769131 rev/day
Decay rate: 5.565e-05 rev/day^2
Epoch rev: 2060
Checksum: 269
Satellite: CP6
Catalog number: 35004
Epoch time: 09274.51232095
Element set: 105
Inclination: 040.4616 deg
RA of node: 323.0815 deg
Eccentricity: 0.0026983
Arg of perigee: 243.8129 deg
Mean anomaly: 115.9908 deg
Mean motion: 15.40859667 rev/day
Decay rate: 6.484e-05 rev/day^2
Epoch rev: 2074
Checksum: 300
Satellite: AEROCUB3
Catalog number: 35005
Epoch time: 09273.55648074
Element set: 105
Inclination: 040.4745 deg
RA of node: 329.1869 deg
Eccentricity: 0.0026916
Arg of perigee: 233.2775 deg
Mean anomaly: 126.5567 deg
Mean motion: 15.40630500 rev/day
Decay rate: 5.817e-05 rev/day^2
Epoch rev: 2059
Checksum: 298
Satellite: DRAGNSAT
Catalog number: 35690
Epoch time: 09273.94974241
Element set: 0074
Inclination: 051.6379 deg
RA of node: 120.0811 deg
Eccentricity: 0.0002791
Arg of perigee: 310.1839 deg
Mean anomaly: 049.8917 deg
Mean motion: 15.83224751 rev/day
Decay rate: 3.6014e-04 rev/day^2
Epoch rev: 00988
Checksum: 305
Satellite: POLLUX
Catalog number: 35693
Epoch time: 09274.73012306
Element set: 63
Inclination: 051.6389 deg
RA of node: 116.3004 deg
Eccentricity: 0.0003159
Arg of perigee: 236.9581 deg
Mean anomaly: 123.1079 deg
Mean motion: 15.82561244 rev/day
Decay rate: 3.1653e-04 rev/day^2
Epoch rev: 997
Checksum: 289
Satellite: CASTOR
Catalog number: 35694
Epoch time: 09273.80762553
Element set: 0060
Inclination: 051.6404 deg
RA of node: 121.4040 deg
Eccentricity: 0.0003013
Arg of perigee: 247.4933 deg
Mean anomaly: 112.5827 deg
Mean motion: 15.81248934 rev/day
Decay rate: 1.6478e-04 rev/day^2
Epoch rev: 00982
Checksum: 284
Satellite: METEOR-M
Catalog number: 35865
Epoch time: 09274.16635696
Element set: 13
Inclination: 098.7998 deg
RA of node: 324.3052 deg
Eccentricity: 0.0003207
Arg of perigee: 049.6494 deg
Mean anomaly: 310.4916 deg
Mean motion: 14.21827409 rev/day
Decay rate: 1.76e-06 rev/day^2
Epoch rev: 191
Checksum: 309
Satellite: STERKH-2
Catalog number: 35866
Epoch time: 09273.66948054
Element set: 0016
Inclination: 098.8005 deg
RA of node: 323.8238 deg
Eccentricity: 0.0003940
Arg of perigee: 043.9397 deg
Mean anomaly: 316.2066 deg
Mean motion: 14.22296780 rev/day
Decay rate: 1.78e-06 rev/day^2
Epoch rev: 00184
Checksum: 314
Satellite: FREGAT-I
Catalog number: 35867
Epoch time: 09274.72543441
Element set: 26
Inclination: 097.3735 deg
RA of node: 324.5402 deg
Eccentricity: 0.0009030
Arg of perigee: 235.3065 deg
Mean anomaly: 124.7206 deg
Mean motion: 15.22715157 rev/day
Decay rate: 2.264e-05 rev/day^2
Epoch rev: 213
Checksum: 266
Satellite: SUMBDILA
Catalog number: 35870
Epoch time: 09274.79035001
Element set: 37
Inclination: 097.3714 deg
RA of node: 324.5940 deg
Eccentricity: 0.0010355
Arg of perigee: 241.2516 deg
Mean anomaly: 118.8200 deg
Mean motion: 15.22796602 rev/day
Decay rate: 9.79e-06 rev/day^2
Epoch rev: 214
Checksum: 274
/EX
More information about the Keps
mailing list